GEESAT 4-09

导读

GEESAT 4-09是中国于2025年8月8日发射的卫星。作为GEESAT 4系列的重要组成部分,该卫星承载着中国航天领域相关任务目标,有望在通信服务、遥感监测等应用场景中发挥作用,进一步推动中国卫星网络布局完善,助力商业航天发展,为相关领域的科研与应用提供数据与技术支撑。

Basic Information
目录编号:
65127
目录名称:
GEESAT 4-09
国际标识:
2025-170J
轨道中心:
EARTH
卫星名称:
GEESAT 4-09
卫星全名:
GEESAT 4-09
卫星状态:
在轨 (已飞行400 天)
发射日期:
2025-08-08 UTC
国别 :
中国 (CN)
星等 :
--
This satellite is enrolled in the Space Conjunction Data Service (SCDS) and the current flight risk assessment level is: No High Risk
Orbit Information
数据来源 国际轨道数据 AOE轨道数据
星历时间 2026-09-12T05:25:08+0800
7小时前
查看轨道信息
2026-09-10T23:00:00+0800
1天前
查看轨道信息
半长轴 7002.33km 7002.336km
偏心率 0.0022304 0.0022247
轨道倾角 49.991° 49.990°
近地点辐角 2.864° 357.825°
升交点赤经 163.433° 169.289°
平近点角 357.242° 77.007°
近地点 608.575km 608.62km
远地点 639.811km 639.778km
周期 97.190分钟 97.191分钟
每日圈数 14.816273 14.816253
Detailed Information
使用方式:
暂无
2D Orbit Map
3D Orbit Map
Orbit Altitude Analysis Chart
Orbit Inclination Analysis Chart
Orbit Comprehensive Analysis Chart
View Comprehensive Chart
Miss Distance Evolution Trend with All Objects
Collision Probability Evolution Trend with All Objects